Tracking 20040 objects as of 19-Nov-2019
Live streaming from Space Station
objects crossing your sky now

BEIDOU 3M11

Track BEIDOU 3M11 now!
BEIDOU 3M11 is classified as:


NORAD ID: 43602
Int'l Code: 2018-067A
Perigee: 21,517.0 km
Apogee: 21,553.3 km
Inclination: 54.8 °
Period: 773.2 minutes
Semi major axis: 27906 km
RCS: Unknown
Launch date: August 24, 2018
Source: People's Republic of China (PRC)
Launch site: Xichang Space Center, China (XSC)
aabbcc
Your satellite tracking list
Your tracking list is empty




NASA's NSSDC Master Catalog

Two Line Element Set (TLE):
1 43602U 18067A   19323.17714757 -.00000011  00000-0  00000+0 0  9996
2 43602  54.7539 262.9239 0006496 339.3226  54.6665  1.86231561  8391
Source of the keplerian elements: AFSPC